Weather History for FVHA - March, 2013

Change the Weather History Date:

Tuesday, March 12, 2013

  Actual Average Record
Temperature  
Mean Temperature 64 °F -  
Max Temperature 70 °F 79 °F 87 °F (2008)
Min Temperature 57 °F 56 °F 54 °F (2015)
Degree Days  
Heating Degree Days 2    
Growing Degree Days 14 (Base 50)    
Moisture  
Dew Point 56 °F    
Average Humidity 80    
Maximum Humidity 94    
Minimum Humidity 53    
Precipitation  
Precipitation 0.00 in 0.10 in - ()
Sea Level Pressure  
Sea Level Pressure 30.23 in    
Wind  
Wind Speed 8 mph ()    
Max Wind Speed 12 mph    
Max Gust Speed -    
Visibility 8.4 miles    
Events      
Averages and records for this station are not official NWS values.
T = Trace of Precipitation, MM = Missing Value Source: Averaged Metar Reports

Daily Weather History Graph

Daily Weather History Graph

Search for Another Location

Airport or City:

Trip Planner

Search our weather history database for the weather conditions in past years. The results will help you decide how hot, cold, wet, or windy it might be!

Date:

Astronomy

Mar. 12, 2013 Rise Set
Actual Time 5:57 AM CAT 6:12 PM CAT
Civil Twilight 5:35 AM CAT 6:34 PM CAT
Nautical Twilight 5:10 AM CAT 6:59 PM CAT
Astronomical Twilight 4:44 AM CAT 7:25 PM CAT
Moon 6:17 AM CAT (3/12) 6:31 PM CAT (3/12)
Length of Visible Light 12h 58m
Length of Day
12h 15m
New Moon, 0% of the Moon is Illuminated
Mar 12
New Moon
Mar 19
First Quarter
Mar 27
Full
Apr 3
Last Quarter
Apr 10
New

Hourly Weather History & Observations

Time (CAT) Temp. Dew Point Humidity Pressure Visibility Wind Dir Wind Speed Gust Speed Precip Events Conditions
12:00 AM 60.8 °F 59.0 °F 94% 30.27 in 6.2 mi SSE 11.5 mph - N/A   Mostly Cloudy
1:00 AM 60.8 °F 57.2 °F 88% 30.24 in 6.2 mi SSE 11.5 mph - N/A   Overcast
2:00 AM 59 °F 57 °F 89%  in 19 mi SSE 10.4 mph - -   Overcast
2:00 AM 59.0 °F 57.2 °F 94% 30.24 in 6.2 mi SSE 10.4 mph - N/A   Overcast
3:00 AM 59.0 °F 57.2 °F 94% 30.21 in 6.2 mi SSE 11.5 mph - N/A   Overcast
4:00 AM 59.0 °F 57.2 °F 94% 30.21 in 6.2 mi SSE 8.1 mph - N/A   Overcast
5:00 AM 59.0 °F 57.2 °F 94% 30.21 in 6.2 mi SSE 8.1 mph - N/A   Overcast
7:00 AM 59.0 °F 57.2 °F 94% 30.24 in 6.2 mi SSE 6.9 mph - N/A   Overcast
8:00 AM 61 °F 57 °F 82%  in 19 mi SSE 11.5 mph - -   Overcast
8:00 AM 60.8 °F 57.2 °F 88% 30.27 in 6.2 mi SSE 11.5 mph - N/A   Overcast
9:00 AM 60.8 °F 57.2 °F 88% 30.30 in 6.2 mi SSE 10.4 mph - N/A   Overcast
10:00 AM 60.8 °F 55.4 °F 82% 30.30 in 6.2 mi SSE 10.4 mph - N/A   Overcast
11:00 AM 64.4 °F 57.2 °F 77% 30.30 in 6.2 mi ESE 10.4 mph - N/A   Mostly Cloudy
12:00 PM 69.8 °F 55.4 °F 60% 30.27 in 6.2 mi SE 8.1 mph - N/A   Mostly Cloudy
1:00 PM 69.8 °F 57.2 °F 64% 30.24 in 6.2 mi South 8.1 mph - N/A   Mostly Cloudy
2:00 PM 70 °F 57 °F 53%  in 19 mi ESE 5.8 mph - -   Mostly Cloudy
2:00 PM 69.8 °F 57.2 °F 64% 30.21 in 6.2 mi ESE 5.8 mph - N/A   Mostly Cloudy
3:00 PM 71.6 °F 57.2 °F 60% 30.18 in 6.2 mi SSE 5.8 mph - N/A   Mostly Cloudy
4:00 PM 69.8 °F 57.2 °F 64% 30.18 in 6.2 mi SSE 4.6 mph - N/A   Mostly Cloudy
5:00 PM 69.8 °F 59.0 °F 68% 30.18 in 6.2 mi South 5.8 mph - N/A   Scattered Clouds
6:00 PM 66.2 °F 57.2 °F 73% 30.18 in 6.2 mi South 8.1 mph - N/A   Partly Cloudy
7:00 PM 62.6 °F 55.4 °F 77% 30.21 in 6.2 mi SSE 6.9 mph - N/A   Partly Cloudy
8:00 PM 60 °F 54 °F 76%  in 19 mi SE 6.9 mph - -  
8:00 PM 60.8 °F 55.4 °F 82% 30.21 in - SE 8.1 mph - N/A   Clear
9:00 PM 59.0 °F 53.6 °F 82% 30.24 in - SE 5.8 mph - N/A   Clear
10:00 PM 57.2 °F 53.6 °F 88% 30.24 in - ESE 6.9 mph - N/A   Clear
11:00 PM 57.2 °F 51.8 °F 82% 30.24 in - ESE 5.8 mph - N/A   Clear